Regional Weather Roundup
Issued by NWS

Home | Current Version | Previous Version | Text Only | Print | Product List | Glossary Off
Versions: 1 2 3 4 5 6 7 8 9 10 11 12 13 14 15 16 17 18 19 20 21 22 23 24 25 26 27 28 29 30 31 32 33 34 35 36 37 38 39 40 41 42 43 44 45 46 47 48 49 50

000
ASUS43 KMKX 281521
RWRWI

WISCONSIN REGIONAL WEATHER ROUNDUP
NATIONAL WEATHER SERVICE MILWAUKEE/SULLIVAN WI
1000 AM CDT MON JUL 28 2014

NOTE: "FAIR" INDICATES FEW OR NO CLOUDS BELOW 12,000 FEET WITH NO
SIGNIFICANT WEATHER AND/OR OBSTRUCTIONS TO VISIBILITY.

WIZ001-002-006>008-014>016-023>028-281600-
NORTHWEST WISCONSIN

CITY           SKY/WX    TMP DP  RH WIND       PRES   REMARKS
SUPERIOR ARPT  SUNNY     69  56  64 N8        30.17S
ASHLAND        MOSUNNY   68  56  65 NW8       30.16S
HAYWARD        SUNNY     66  55  67 CALM      30.18S
SIREN          CLOUDY    64  56  77 W5        30.20S
RICE LAKE      CLOUDY    65  56  72 W5        30.21R
LADYSMITH      MOSUNNY   67  54  64 NW9       30.19S
EAU CLAIRE     CLOUDY    69  51  52 VRB6      30.17S
MENOMONIE      CLOUDY    67  55  63 NW6       30.19S
NEW RICHMOND   CLOUDY    65  58  80 W3        30.21S
OSCEOLA        CLOUDY    64  59  86 NW3       30.23S
$$

WIZ003>005-009-010-017-018-281600-
NORTH CENTRAL WISCONSIN

CITY           SKY/WX    TMP DP  RH WIND       PRES   REMARKS
WOODRUFF       SUNNY     65  54  69 N10       30.13F
RHINELANDER    SUNNY     62  52  69 NW9       30.14S
EAGLE RIVER    SUNNY     64  51  63 NW13      30.13S
LAND O LAKES   SUNNY     64  52  64 N10       30.13S
PHILLIPS       SUNNY     64  53  69 NW7       30.15S
TOMAHAWK       MOSUNNY   64  52  65 NW9G16    30.15S
MEDFORD        MOSUNNY   61  51  69 NW8       30.16S
MERRILL        SUNNY     63  53  69 N10       30.14S
$$

WIZ029-030-035-036-043>047-281600-
CENTRAL WISCONSIN

CITY           SKY/WX    TMP DP  RH WIND       PRES   REMARKS
WAUSAU         PTSUNNY   64  50  60 NW10      30.12F
MOSINEE        PTSUNNY   63  54  72 NW10      30.15S
MARSHFIELD     PTSUNNY   64  52  64 NW9       30.16R
STEVENS POINT  CLOUDY    61  49  64 NW12      30.15S
WAUPACA        PTSUNNY   66  50  55 N3        30.13S
WAUTOMA        SUNNY     65  50  58 N9        30.14S
WISC RAPIDS    CLOUDY    64  52  64 MISG      30.16S
CAMP DOUGLAS   PTSUNNY   66  55  68 NW8       30.16S
$$

WIZ011>013-019>022-031-037>040-048>050-281600-
NORTHEAST WISCONSIN

CITY           SKY/WX    TMP DP  RH WIND       PRES   REMARKS
ANTIGO         MOSUNNY   61  52  72 W9        30.13S
STURGEON BAY   PTSUNNY   57  43  58 N15       30.10S
GREEN BAY      CLOUDY    62  47  57 N8        30.11S
MANITOWOC      SUNNY     61  46  57 N20       30.09R
APPLETON       PTSUNNY   61  46  59 N13       30.12S
CLINTONVILLE   CLOUDY    63  50  63 NE5       30.12S
OSHKOSH        SUNNY     62  49  62 N13       30.12S
$$

WIZ032>034-041-042-053>061-281600-
SOUTHWEST WISCONSIN

CITY           SKY/WX    TMP DP  RH WIND       PRES   REMARKS
LA CROSSE      SUNNY     68  54  60 VRB5      30.17
SPARTA         SUNNY     65  50  60 NW6       30.18S
VIROQUA        FAIR      65  52  62 N5        30.18S
BOSCOBEL       SUNNY     69  50  50 N8        30.17S
PRAIRIE DU CHI SUNNY     68  48  49 N10       30.17S
PLATTEVILLE    FAIR      65  49  55 N14       30.17S
$$

WIZ056-057-062-063-064-067-068-281600-
SOUTH CENTRAL WISCONSIN

CITY           SKY/WX    TMP DP  RH WIND       PRES   REMARKS
BARABOO/DELLS  SUNNY     65  47  51 N6        30.15R
LONE ROCK      SUNNY     69  51  52 N6        30.16R
WATERTOWN      SUNNY     61  50  66 N13G18    30.11S
MADISON        MOSUNNY   65  50  58 N14       30.14R
MIDDLETON      FAIR      65  48  54 N13       30.14S
MONROE         SUNNY     63  50  63 N16G22    30.13S
JANESVILLE     SUNNY     64  46  52 N9        30.11R
$$

WIZ051-052-058>065-066-070>072-281600-
SOUTHEAST WISCONSIN

CITY           SKY/WX    TMP DP  RH WIND       PRES   REMARKS
MILWAUKEE      MOSUNNY   61  46  57 N14       30.09R
WAUKESHA       NOT AVBL
MILWAUKEE/TIMM SUNNY    N/A N/A N/A N13G22    30.09S
RACINE         SUNNY     61  46  57 N21G28    30.10R
BURLINGTON     SUNNY     60  47  61 N9G18     30.09S
KENOSHA        SUNNY     62  47  57 N14G21    30.08S
FOND DU LAC    SUNNY     62  48  60 N10G20    30.12S
SHEBOYGAN      SUNNY     62  48  60 N10G17    30.09R
WEST BEND      SUNNY     61  43  51 N14G21    30.10R
JUNEAU         SUNNY     61  45  56 N14G21    30.13R
$$

LSZ147-162-281600-
LAKE SUPERIOR

STATION/POSITION TIME  TEMP    WIND        PRES    WAVE
                       AIR SEA DIR/SP/G            HT/PER
                 (UTC) (F)     (DEG/KT/KT) (MB)    (FT/S)
W MID LAKE BUOY  1450   48 43  270/  6/  8 1019.8S   1
PORT WING        1400   62     240/  7/  8 1021.3S
SAXON HARBOR     1440          310/  2/  7 1021.0R
$$

LMZ867-665-643>646-281600-
LAKE MICHIGAN

STATION/POSITION TIME  TEMP    WIND        PRES    WAVE
                       AIR SEA DIR/SP/G            HT/PER
                 (UTC) (F)     (DEG/KT/KT) (MB)    (FT/S)
N MID LAKE BUOY  1450   54 52  340/ 12/ 14 1017.8R   3/ 5
NORTHPORT PIER   1400   55     350/ 13/ 16 1019.0R
SISTER BAY       1440   59     350/ 14/ 18   N/A
KEWAUNEE LAKESHO 1500   60     350/  8/ 14 1019.5R
SHEBOYGAN LAKESH 1500   55      20/  9/ 10 1019.3R
PORT WASHINGTON  1400   61     360/  7/ 16 1019.0R
ATWATER BUOY     1500   59      10/ 16     1019.5R
MILWAUKEE LAKESH 1500   58      30/ 14/ 18   N/A
S MID LAKE BUOY  1450   56 59  340/ 23/ 27 1017.0R   8/ 7
KENOSHA   LAKESH 1500   58     350/ 18/ 25 1018.3R
$$

TC  - TEMPERATURE IN CELSIUS
VSB - VISIBILITY IN STATUTE MILES
WCI - WIND CHILL INDEX
HX  - HEAT INDEX




USA.gov is the U.S. government's official web portal to all federal, state and local government web resources and services.